TimeCST,TemperatureF,Dew PointF,Humidity,Sea Level PressureIn,VisibilityMPH,Wind Direction,Wind SpeedMPH,Gust SpeedMPH,PrecipitationIn,Events,Conditions,WindDirDegrees,DateUTC
12:15 AM,35.6,17.6,48,30.02,10.0,North,-9999.0,-,N/A,,Clear,0,2013-02-17 06:15:00
12:35 AM,33.8,19.4,56,30.02,10.0,North,-9999.0,-,N/A,,Clear,0,2013-02-17 06:35:00
12:55 AM,33.8,19.4,56,30.02,10.0,North,-9999.0,-,N/A,,Clear,0,2013-02-17 06:55:00
1:15 AM,32.0,19.4,60,30.01,10.0,North,-9999.0,-,N/A,,Clear,0,2013-02-17 07:15:00
1:35 AM,32.0,19.4,60,30.00,10.0,North,-9999.0,-,N/A,,Clear,0,2013-02-17 07:35:00
1:55 AM,32.0,19.4,60,30.00,10.0,North,-9999.0,-,N/A,,Clear,0,2013-02-17 07:55:00
2:15 AM,30.2,19.4,64,30.00,10.0,North,-9999.0,-,N/A,,Clear,0,2013-02-17 08:15:00
2:35 AM,30.2,19.4,64,29.99,10.0,North,-9999.0,-,N/A,,Clear,0,2013-02-17 08:35:00
2:55 AM,30.2,19.4,64,29.98,10.0,North,-9999.0,-,N/A,,Clear,0,2013-02-17 08:55:00
3:15 AM,28.4,19.4,69,29.98,10.0,North,-9999.0,-,N/A,,Clear,0,2013-02-17 09:15:00
3:35 AM,28.4,19.4,69,29.98,10.0,North,-9999.0,-,N/A,,Clear,0,2013-02-17 09:35:00
3:55 AM,26.6,19.4,74,29.97,10.0,North,-9999.0,-,N/A,,Clear,0,2013-02-17 09:55:00
4:15 AM,26.6,17.6,69,29.96,10.0,North,-9999.0,-,N/A,,Clear,0,2013-02-17 10:15:00
4:35 AM,26.6,17.6,69,29.96,10.0,North,-9999.0,-,N/A,,Clear,0,2013-02-17 10:35:00
4:55 AM,24.8,17.6,74,29.95,10.0,North,-9999.0,-,N/A,,Clear,0,2013-02-17 10:55:00
5:15 AM,24.8,17.6,74,29.95,10.0,North,-9999.0,-,N/A,,Clear,0,2013-02-17 11:15:00
5:35 AM,26.6,17.6,69,29.95,10.0,North,-9999.0,-,N/A,,Clear,0,2013-02-17 11:35:00
5:55 AM,28.4,19.4,69,29.95,10.0,North,-9999.0,-,N/A,,Clear,0,2013-02-17 11:55:00
6:15 AM,26.6,17.6,69,29.95,10.0,North,-9999.0,-,N/A,,Clear,0,2013-02-17 12:15:00
6:35 AM,24.8,17.6,74,29.95,10.0,North,-9999.0,-,N/A,,Clear,0,2013-02-17 12:35:00
6:55 AM,26.6,17.6,69,29.94,10.0,North,-9999.0,-,N/A,,Clear,0,2013-02-17 12:55:00
7:15 AM,26.6,17.6,69,29.94,10.0,North,-9999.0,-,N/A,,Clear,0,2013-02-17 13:15:00
7:35 AM,26.6,17.6,69,29.94,10.0,North,-9999.0,-,N/A,,Clear,0,2013-02-17 13:35:00
7:55 AM,24.8,17.6,74,29.94,10.0,North,-9999.0,-,N/A,,Clear,0,2013-02-17 13:55:00
8:15 AM,28.4,19.4,69,29.94,10.0,North,-9999.0,-,N/A,,Clear,0,2013-02-17 14:15:00
8:35 AM,30.2,21.2,69,29.94,10.0,North,-9999.0,-,N/A,,Clear,0,2013-02-17 14:35:00
8:55 AM,32.0,21.2,64,29.94,10.0,North,-9999.0,-,N/A,,Clear,0,2013-02-17 14:55:00
9:15 AM,35.6,19.4,52,29.94,10.0,North,-9999.0,-,N/A,,Clear,0,2013-02-17 15:15:00
9:35 AM,39.2,21.2,49,29.93,10.0,North,-9999.0,-,N/A,,Clear,0,2013-02-17 15:35:00
9:55 AM,42.8,19.4,39,29.94,10.0,North,-9999.0,-,N/A,,Clear,0,2013-02-17 15:55:00
10:15 AM,44.6,19.4,37,29.93,10.0,North,-9999.0,-,N/A,,Clear,0,2013-02-17 16:15:00
10:35 AM,46.4,19.4,34,29.92,10.0,North,-9999.0,-,N/A,,Clear,0,2013-02-17 16:35:00
10:55 AM,51.8,19.4,28,29.91,10.0,North,-9999.0,-,N/A,,Clear,0,2013-02-17 16:55:00
11:15 AM,53.6,19.4,26,29.90,10.0,North,-9999.0,-,N/A,,Clear,0,2013-02-17 17:15:00
11:35 AM,55.4,19.4,25,29.90,10.0,North,-9999.0,-,N/A,,Clear,0,2013-02-17 17:35:00
11:55 AM,57.2,17.6,21,29.88,10.0,North,-9999.0,-,N/A,,Clear,0,2013-02-17 17:55:00
12:15 PM,59.0,15.8,19,29.87,10.0,North,-9999.0,-,N/A,,Clear,0,2013-02-17 18:15:00
12:55 PM,62.6,12.2,14,29.84,10.0,North,-9999.0,-,N/A,,Clear,0,2013-02-17 18:55:00
1:15 PM,62.6,12.2,14,29.83,10.0,North,-9999.0,-,N/A,,Clear,0,2013-02-17 19:15:00
1:35 PM,64.4,10.4,12,29.81,10.0,North,-9999.0,-,N/A,,Clear,0,2013-02-17 19:35:00
1:55 PM,66.2,10.4,11,29.80,10.0,North,-9999.0,-,N/A,,Clear,0,2013-02-17 19:55:00
2:15 PM,68.0,10.4,11,29.78,10.0,North,-9999.0,-,N/A,,Clear,0,2013-02-17 20:15:00
2:35 PM,68.0,8.6,10,29.77,10.0,North,-9999.0,-,N/A,,Clear,0,2013-02-17 20:35:00
2:55 PM,69.8,1.4,7,29.76,10.0,North,-9999.0,-,N/A,,Clear,0,2013-02-17 20:55:00
3:15 PM,69.8,3.2,7,29.75,10.0,North,-9999.0,-,N/A,,Clear,0,2013-02-17 21:15:00
3:35 PM,69.8,1.4,7,29.75,10.0,North,-9999.0,-,N/A,,Clear,0,2013-02-17 21:35:00
3:55 PM,69.8,5.0,8,29.74,10.0,North,-9999.0,-,N/A,,Clear,0,2013-02-17 21:55:00
4:15 PM,69.8,6.8,9,29.73,10.0,North,-9999.0,-,N/A,,Clear,0,2013-02-17 22:15:00
4:35 PM,69.8,5.0,8,29.73,10.0,North,-9999.0,-,N/A,,Clear,0,2013-02-17 22:35:00
4:55 PM,68.0,1.4,7,29.72,10.0,North,-9999.0,-,N/A,,Clear,0,2013-02-17 22:55:00
5:15 PM,68.0,1.4,7,29.71,10.0,North,-9999.0,-,N/A,,Clear,0,2013-02-17 23:15:00
5:35 PM,68.0,1.4,7,29.71,10.0,North,-9999.0,-,N/A,,Clear,0,2013-02-17 23:35:00
5:55 PM,64.4,3.2,9,29.70,10.0,North,-9999.0,-,N/A,,Clear,0,2013-02-17 23:55:00
6:15 PM,62.6,3.2,9,29.70,10.0,North,-9999.0,-,N/A,,Clear,0,2013-02-18 00:15:00
6:35 PM,59.0,5.0,12,29.70,10.0,North,-9999.0,-,N/A,,Clear,0,2013-02-18 00:35:00
6:55 PM,55.4,6.8,14,29.70,10.0,North,-9999.0,-,N/A,,Clear,0,2013-02-18 00:55:00
7:15 PM,48.2,10.4,22,29.70,10.0,North,-9999.0,-,N/A,,Clear,0,2013-02-18 01:15:00
7:35 PM,50.0,8.6,19,29.70,10.0,North,-9999.0,-,N/A,,Clear,0,2013-02-18 01:35:00
7:55 PM,51.8,5.0,15,29.70,10.0,North,-9999.0,-,N/A,,Clear,0,2013-02-18 01:55:00
8:15 PM,50.0,8.6,19,29.70,10.0,North,-9999.0,-,N/A,,Clear,0,2013-02-18 02:15:00
8:35 PM,51.8,5.0,15,29.70,10.0,North,-9999.0,-,N/A,,Clear,0,2013-02-18 02:35:00
8:55 PM,51.8,6.8,16,29.70,10.0,North,-9999.0,-,N/A,,Clear,0,2013-02-18 02:55:00
9:15 PM,50.0,8.6,19,29.70,10.0,North,-9999.0,-,N/A,,Clear,0,2013-02-18 03:15:00
9:35 PM,48.2,8.6,20,29.69,10.0,North,-9999.0,-,N/A,,Clear,0,2013-02-18 03:35:00
9:55 PM,46.4,8.6,22,29.68,10.0,North,-9999.0,-,N/A,,Clear,0,2013-02-18 03:55:00
10:15 PM,44.6,8.6,23,29.68,10.0,North,-9999.0,-,N/A,,Clear,0,2013-02-18 04:15:00
10:35 PM,44.6,10.4,25,29.68,10.0,North,-9999.0,-,N/A,,Clear,0,2013-02-18 04:35:00
10:55 PM,42.8,10.4,27,29.67,10.0,North,-9999.0,-,N/A,,Clear,0,2013-02-18 04:55:00
11:15 PM,41.0,10.4,29,29.67,10.0,North,-9999.0,-,N/A,,Clear,0,2013-02-18 05:15:00
11:35 PM,41.0,10.4,29,29.67,10.0,North,-9999.0,-,N/A,,Clear,0,2013-02-18 05:35:00
11:55 PM,42.8,10.4,27,29.67,10.0,North,-9999.0,-,N/A,,Clear,0,2013-02-18 05:55:00